Simultaneous Nadir Overpasses (SNOs) Predictions

Prediction of SNOs between AQUA and LANDSAT-8 Satellite Orbit:

Table of predicted SNOs for the next 14.0 days since TLE Epoch: 9/14/2024
Index Date (AQUA) Time (AQUA) Lat,Lon (AQUA) SZA (AQUA ) Date (LANDSAT-8) Time (LANDSAT-8) Lat,Lon (LANDSAT-8) SZA (LANDSAT-8 ) Distance(km) Time Diff (sec)
1 09/14/2024 04:29:52 -74.06, -63.86 109.20 09/14/2024 04:28:45 -74.09, -63.87 109.18 3.00 67
2 09/14/2024 05:19:14 74.05, 103.82 70.81 09/14/2024 05:18:11 74.06, 103.72 70.81 3.34 63
3 09/14/2024 06:08:34 -74.07, -88.55 109.17 09/14/2024 06:07:38 -74.10, -88.57 109.15 2.94 56
4 09/14/2024 06:57:57 74.11, 79.01 70.89 09/14/2024 06:57:03 74.12, 79.13 70.90 3.74 54
5 09/14/2024 07:47:16 -74.08,-113.24 109.13 09/14/2024 07:46:31 -74.10,-113.28 109.11 2.95 45
6 09/14/2024 08:36:39 74.12, 54.32 70.92 09/14/2024 08:35:56 74.13, 54.42 70.93 3.21 43
7 09/14/2024 09:25:58 -74.09,-137.93 109.10 09/14/2024 09:25:24 -74.11,-137.99 109.08 3.03 34
8 09/14/2024 10:15:21 74.13, 29.63 70.96 09/14/2024 10:14:49 74.13, 29.71 70.96 2.69 32
9 09/14/2024 11:04:40 -74.09,-162.63 109.07 09/14/2024 11:04:17 -74.12,-162.70 109.05 3.17 23
10 09/14/2024 11:54:03 74.14, 4.93 70.99 09/14/2024 11:53:42 74.14, 5.00 70.99 2.17 21
11 09/14/2024 12:43:22 -74.10, 172.68 109.03 09/14/2024 12:43:10 -74.12, 172.60 109.02 3.36 12
12 09/14/2024 13:32:45 74.15, -19.76 71.03 09/14/2024 13:32:35 74.15, -19.70 71.03 1.68 10
13 09/14/2024 14:22:04 -74.11, 147.99 109.00 09/14/2024 14:22:03 -74.13, 147.89 108.98 3.60 1
14 09/14/2024 15:11:27 74.15, -44.45 71.06 09/14/2024 15:11:28 74.15, -44.41 71.06 1.24 1
15 09/14/2024 16:00:46 -74.12, 123.30 108.96 09/14/2024 16:00:56 -74.13, 123.18 108.95 3.89 10
16 09/14/2024 16:50:09 74.16, -69.14 71.10 09/14/2024 16:50:21 74.16, -69.12 71.09 0.95 12
17 09/14/2024 17:39:29 -74.18, 98.49 108.88 09/14/2024 17:39:48 -74.19, 98.59 108.86 3.52 19
18 09/14/2024 18:28:51 74.17, -93.84 71.13 09/14/2024 18:29:14 74.16, -93.83 71.12 0.97 23
19 09/14/2024 19:18:11 -74.19, 73.79 108.85 09/14/2024 19:18:41 -74.20, 73.89 108.83 2.99 30
20 09/14/2024 20:07:32 74.18,-118.53 71.17 09/14/2024 20:08:06 74.17,-118.54 71.16 1.30 34
21 09/14/2024 20:56:52 -74.20, 49.10 108.81 09/14/2024 20:57:33 -74.20, 49.18 108.80 2.47 41
22 09/14/2024 21:46:14 74.19,-143.23 71.20 09/14/2024 21:46:59 74.17,-143.24 71.19 1.78 45
23 09/14/2024 22:35:34 -74.21, 24.40 108.78 09/14/2024 22:36:26 -74.21, 24.47 108.77 1.99 52
24 09/14/2024 23:24:56 74.20,-167.92 71.24 09/14/2024 23:25:52 74.18,-167.95 71.22 2.33 56
25 09/15/2024 00:14:16 -74.21, -0.29 108.74 09/15/2024 00:15:19 -74.21, -0.24 108.73 1.58 63
26 09/15/2024 01:03:38 74.21, 167.38 71.27 09/15/2024 01:04:45 74.18, 167.34 71.25 2.91 67
27 09/15/2024 01:53:00 -74.33, -25.23 108.61 09/15/2024 01:54:11 -74.27, -24.83 108.65 13.72 71
28 09/15/2024 02:42:24 74.42, 142.19 71.50 09/15/2024 02:43:34 74.40, 143.12 71.50 27.77 70
29 09/15/2024 03:31:49 -74.69, -50.81 108.23 09/15/2024 03:32:56 -74.68, -48.55 108.18 66.54 67
30 09/15/2024 04:21:14 74.84, 116.47 71.93 09/15/2024 04:22:19 74.81, 119.42 71.97 85.99 65



Historial Predications of SNOs between AQUA and LANDSAT-8
